Location: Hysolar-Haus
(48.7436°N, 9.0965°E)
Time: 09:39:07
(UTC+00:00)

Explorer 7 - Visible Passes

Search period start: 19 November 2019 00:00
Search period end: 29 November 2019 00:00
Orbit: 485 x 680 km, 50.3° (Epoch: 18 November)

Date Brightness Start Highest point End Pass type
(mag) Time Alt. Az. Time Alt. Az. Time Alt. Az.
19 Nov 6.9 04:12:57 65° SSE 04:12:57 65° SSE 04:16:30 10° ESE visible
19 Nov 8.4 05:49:31 10° W 05:52:32 20° SW 05:55:26 10° S visible
20 Nov 7.2 04:17:55 50° S 04:17:55 50° S 04:21:20 10° SE visible
20 Nov 8.9 05:55:15 10° WSW 05:57:13 13° SW 05:59:09 10° SSW visible
21 Nov 7.7 04:22:57 36° S 04:22:57 36° S 04:26:00 10° SE visible
22 Nov 8.3 04:28:02 24° SSW 04:28:02 24° SSW 04:30:29 10° SSE visible
23 Nov 8.8 04:33:12 16° SSW 04:33:12 16° SSW 04:34:37 10° S visible
